Location: Table Mountain
(47.2500°N, 120.5778°W)
Time: 10:01:44
(UTC-08:00)

Vanguard 3 - Visible Passes

Search period start: 21 January 2018 00:00
Search period end: 31 January 2018 00:00
Orbit: 508 x 3264 km, 33.4° (Epoch: 20 January)

Date Brightness Start Highest point End Pass type
(mag) Time Alt. Az. Time Alt. Az. Time Alt. Az.
21 Jan 10.4 02:12:57 43° SE 02:12:57 43° SE 02:26:08 10° ESE visible
21 Jan 10.2 04:17:30 41° SW 04:22:36 47° SSW 04:40:00 10° SE visible
21 Jan 10.8 06:22:04 11° W 06:36:36 29° SW 06:50:00 10° SSE visible
22 Jan 11.0 01:03:08 24° ESE 01:03:08 24° ESE 01:09:39 10° E visible
22 Jan 10.1 03:07:41 50° S 03:07:41 50° S 03:24:59 10° ESE visible
22 Jan 10.5 05:12:15 26° WSW 05:21:17 38° SSW 05:37:11 10° SSE visible
23 Jan 10.6 01:57:54 37° SE 01:57:54 37° SE 02:09:05 10° ESE visible
23 Jan 10.2 04:02:28 43° SW 04:05:27 45° SSW 04:23:05 10° SE visible
23 Jan 10.9 06:07:02 13° W 06:19:24 26° SW 06:32:49 10° S visible
24 Jan 11.1 00:48:09 19° ESE 00:48:09 19° ESE 00:52:29 10° E visible
24 Jan 10.3 02:52:43 46° SSE 02:52:43 46° SSE 03:07:57 10° ESE visible
24 Jan 10.5 04:57:17 29° WSW 05:04:05 35° SSW 05:20:05 10° SSE visible
25 Jan 10.7 01:43:00 31° SE 01:43:00 31° SE 01:51:55 10° ESE visible
25 Jan 10.2 03:47:34 42° SSW 03:48:20 43° SSW 04:05:57 10° SE visible
25 Jan 10.9 05:52:09 15° WSW 06:02:13 24° SW 06:15:18 10° S visible
26 Jan 11.3 00:33:19 14° ESE 00:33:19 14° ESE 00:35:13 10° ESE visible
26 Jan 10.4 02:37:54 40° SSE 02:37:54 40° SSE 02:50:44 10° SE visible
26 Jan 10.5 04:42:28 30° SW 04:46:56 32° SSW 05:02:43 10° SSE visible
26 Jan 11.2 06:53:45 10° WSW 06:59:49 12° SW 07:05:48 10° SSW visible
27 Jan 10.9 01:28:15 24° ESE 01:28:15 24° ESE 01:34:38 10° ESE visible
27 Jan 10.3 03:32:51 39° SSW 03:32:51 39° SSW 03:48:38 10° SE visible
27 Jan 10.8 05:37:25 16° WSW 05:45:04 21° SW 05:57:22 10° S visible
28 Jan 10.6 02:23:14 33° SSE 02:23:14 33° SSE 02:33:22 10° SE visible
28 Jan 10.5 04:27:50 29° SW 04:29:51 29° SSW 04:45:05 10° SSE visible
29 Jan 11.2 01:13:41 17° ESE 01:13:41 17° ESE 01:17:14 10° ESE visible
29 Jan 10.5 03:18:16 34° S 03:18:16 34° S 03:31:04 10° SE visible
29 Jan 10.9 05:22:52 16° WSW 05:27:59 18° SW 05:38:55 10° S visible
30 Jan 10.9 02:08:45 25° SE 02:08:45 25° SE 02:15:49 10° SE visible
30 Jan 10.6 04:13:21 26° SSW 04:13:21 26° SSW 04:27:06 10° SSE visible
